Weather History for Cleveland, OH

Change the Weather History Date:

Monday, October 20, 2014

  Actual Average Record
Temperature  
Mean Temperature 53 °F 52 °F  
Max Temperature 58 °F 61 °F 83 °F (1953)
Min Temperature 47 °F 44 °F 27 °F (1972)
Degree Days  
Heating Degree Days 12 13  
Month to date heating degree days 202 198  
Since 1 July heating degree days 345 301  
Cooling Degree Days 0 0  
Month to date cooling degree days 4 10  
Year to date cooling degree days 657 814  
Growing Degree Days 1 (Base 50)    
Moisture  
Dew Point 45 °F    
Average Humidity 81    
Maximum Humidity 100    
Minimum Humidity 61    
Precipitation  
Precipitation 0.36 in 0.09 in 0.61 in (2006)
Month to date precipitation 1.91 2.01  
Year to date precipitation 37.49 31.36  
Snow  
Snow 0.00 in 0.00 in - ()
Month to date snowfall 0.0 0.0  
Since 1 July snowfall 0.0 0.0  
Since 1 September snowfall 0.0 0.0  
Snow Depth 0.00 in    
Sea Level Pressure  
Sea Level Pressure 29.91 in    
Wind  
Wind Speed 9 mph (SW)    
Max Wind Speed 17 mph    
Max Gust Speed 24 mph    
Visibility 7 miles    
Events Rain    
T = Trace of Precipitation, MM = Missing Value Source: NWS Daily Summary

Daily Weather History Graph

Daily Weather History Graph

Search for Another Location

Airport:

Trip Planner

Search our weather history database for the weather conditions in past years. The results will help you decide how hot, cold, wet, or windy it might be!

Date:

Astronomy

Oct. 20, 2014 Rise Set
Actual Time 7:44 AM EDT 6:38 PM EDT
Civil Twilight 7:16 AM EDT 7:06 PM EDT
Nautical Twilight 6:44 AM EDT 7:39 PM EDT
Astronomical Twilight 6:12 AM EDT 8:11 PM EDT
Moon 4:29 AM EDT (10/20) 5:02 PM EDT (10/20)
Length of Visible Light 11h 50m
Length of Day
10h 53m
Waning Crescent, 10% of the Moon is Illuminated
Oct 20
Waning Crescent
Oct 23
New
Oct 30
First Quarter
Nov 6
Full
Nov 14
Last Quarter

Hourly Weather History & Observations

Time (EDT) Temp. Dew Point Humidity Pressure Visibility Wind Dir Wind Speed Gust Speed Precip Events Conditions
12:51 AM 46.9 °F 35.1 °F 63% 30.04 in 10.0 mi South 8.1 mph - N/A   Overcast
1:51 AM 48.0 °F 35.1 °F 61% 30.04 in 10.0 mi SSW 8.1 mph - N/A   Overcast
2:51 AM 46.9 °F 35.1 °F 63% 30.04 in 10.0 mi SSW 6.9 mph - N/A   Overcast
3:51 AM 46.9 °F 36.0 °F 66% 30.02 in 10.0 mi South 8.1 mph - N/A   Overcast
4:51 AM 48.0 °F 36.0 °F 63% 30.00 in 10.0 mi South 9.2 mph - N/A   Overcast
5:51 AM 48.0 °F 37.0 °F 66% 29.99 in 10.0 mi SSW 10.4 mph - N/A   Overcast
6:51 AM 48.0 °F 37.9 °F 68% 29.97 in 10.0 mi SSW 9.2 mph - N/A   Mostly Cloudy
7:51 AM 46.9 °F 37.9 °F 71% 29.96 in 10.0 mi SSW 8.1 mph - N/A   Mostly Cloudy
8:51 AM 48.0 °F 39.0 °F 71% 29.97 in 10.0 mi SSW 13.8 mph - N/A   Overcast
9:51 AM 50.0 °F 41.0 °F 71% 29.95 in 10.0 mi SSW 10.4 mph - 0.00 in   Overcast
10:51 AM 52.0 °F 42.1 °F 69% 29.94 in 10.0 mi SSW 11.5 mph - N/A   Overcast
11:51 AM 51.1 °F 44.1 °F 77% 29.91 in 10.0 mi South 8.1 mph - 0.00 in Rain Light Rain
12:51 PM 57.0 °F 46.0 °F 67% 29.89 in 10.0 mi South 13.8 mph - 0.00 in   Mostly Cloudy
1:51 PM 57.0 °F 46.0 °F 67% 29.86 in 10.0 mi SSW 10.4 mph - N/A   Overcast
2:51 PM 57.0 °F 45.0 °F 64% 29.85 in 10.0 mi SSW 11.5 mph 20.7 mph N/A   Overcast
3:51 PM 55.9 °F 45.0 °F 67% 29.84 in 10.0 mi SSW 9.2 mph - N/A   Overcast
4:51 PM 55.9 °F 46.0 °F 69% 29.84 in 10.0 mi SSW 9.2 mph - N/A   Overcast
5:24 PM 54.0 °F 48.0 °F 80% 29.85 in 5.0 mi SW 8.1 mph - 0.01 in Rain Light Rain
5:51 PM 53.1 °F 50.0 °F 89% 29.86 in 4.0 mi WSW 6.9 mph - 0.05 in Rain Light Rain
6:01 PM 53.1 °F 50.0 °F 89% 29.85 in 3.0 mi SW 8.1 mph - 0.01 in Rain Rain
6:09 PM 53.1 °F 50.0 °F 89% 29.85 in 2.0 mi SW 8.1 mph - 0.02 in Rain Rain
6:29 PM 53.1 °F 50.0 °F 89% 29.85 in 3.0 mi SSW 8.1 mph - 0.07 in Rain Light Rain
6:46 PM 53.6 °F 50.0 °F 88% 29.85 in 5.0 mi SSW 9.2 mph - 0.09 in Rain Light Rain
6:51 PM 53.1 °F 50.0 °F 89% 29.86 in 5.0 mi SSW 8.1 mph - 0.10 in Rain Light Rain
7:41 PM 53.1 °F 51.1 °F 93% 29.86 in 4.0 mi WSW 6.9 mph - 0.06 in Rain Light Rain
7:51 PM 53.1 °F 51.1 °F 93% 29.87 in 4.0 mi WSW 9.2 mph - 0.08 in Rain Light Rain
8:27 PM 51.8 °F 51.8 °F 100% 29.87 in 4.0 mi SW 5.8 mph - N/A Rain Light Rain
8:51 PM 52.0 °F 51.1 °F 97% 29.87 in 4.0 mi West 6.9 mph - 0.05 in Rain Light Rain
8:59 PM 52.0 °F 50.0 °F 93% 29.87 in 5.0 mi WSW 9.2 mph - 0.00 in Rain Light Rain
9:12 PM 52.0 °F 50.0 °F 93% 29.87 in 5.0 mi WSW 8.1 mph - 0.00 in Rain Light Rain
9:51 PM 52.0 °F 50.0 °F 93% 29.88 in 3.0 mi SW 8.1 mph - 0.04 in Rain Light Rain
10:00 PM 52.0 °F 50.0 °F 93% 29.87 in 3.0 mi SW 6.9 mph - 0.01 in Rain Light Rain
10:27 PM 52.0 °F 51.1 °F 97% 29.87 in 3.0 mi SW 5.8 mph - 0.02 in Rain Light Rain
10:51 PM 52.0 °F 51.1 °F 97% 29.88 in 4.0 mi SW 4.6 mph - 0.04 in   Overcast
11:09 PM 52.0 °F 51.1 °F 97% 29.87 in 4.0 mi SW 6.9 mph - N/A   Overcast
11:51 PM 52.0 °F 51.1 °F 97% 29.87 in 4.0 mi WSW 5.8 mph - 0.00 in   Overcast